Location: Unspecified
(54.8312°N, 0.0000°E)
Time: 17:37:33
(UTC+00:00)

Envisat - Visible Passes

Search period start: 22 November 2019 00:00
Search period end: 02 December 2019 00:00
Orbit: 764 x 766 km, 98.1° (Epoch: 22 November)

Date Brightness Start Highest point End Pass type
(mag) Time Alt. Az. Time Alt. Az. Time Alt. Az.
22 Nov 5.7 05:48:11 10° NE 05:52:01 21° E 05:55:52 10° SE visible
22 Nov 3.1 17:09:19 10° SE 17:14:15 54° ENE 17:19:13 10° N visible
22 Nov 4.9 18:49:08 10° SSW 18:53:34 29° W 18:58:01 10° NNW visible
23 Nov 6.3 05:13:14 10° ENE 05:14:41 11° E 05:16:07 10° E visible
23 Nov 3.7 06:49:45 10° NNE 06:54:49 60° ESE 06:59:50 10° S visible
23 Nov 3.7 16:33:17 10° ESE 16:37:42 31° ENE 16:42:08 10° N visible
23 Nov 3.7 18:11:33 10° S 18:16:32 55° W 18:21:33 10° NNW visible
24 Nov 5.0 06:13:14 10° NNE 06:17:49 32° E 06:22:21 10° SSE visible
24 Nov 2.9 17:34:36 10° SSE 17:39:41 82° ENE 17:44:48 10° NNW visible
24 Nov 5.6 19:15:45 10° SW 19:19:22 19° W 19:23:00 10° NW visible
25 Nov 5.9 05:37:12 10° NE 05:40:36 18° E 05:44:00 10° SE visible
25 Nov 3.3 16:58:12 10° SE 17:03:02 45° ENE 17:07:52 10° N visible
25 Nov 4.6 18:37:33 10° SSW 18:42:11 35° W 18:46:52 10° NNW visible
26 Nov 4.1 06:38:31 10° NNE 06:43:29 50° E 06:48:25 10° S visible
26 Nov 3.9 16:22:21 10° ESE 16:26:32 27° ENE 16:30:44 10° N visible
26 Nov 3.4 18:00:10 10° S 18:05:13 66° WSW 18:10:18 10° NNW visible
26 Nov 6.1 19:43:13 10° WSW 19:45:15 12° W 19:47:19 10° WNW visible
27 Nov 5.3 06:02:06 10° NNE 06:06:25 27° E 06:10:43 10° SSE visible
27 Nov 2.9 17:23:22 10° SSE 17:28:25 69° ENE 17:33:30 10° NNW visible
27 Nov 5.3 19:03:56 10° SW 19:07:57 23° W 19:11:59 10° NW visible
28 Nov 6.0 05:26:21 10° NE 05:29:09 15° E 05:31:58 10° ESE visible
28 Nov 3.3 07:03:57 10° NNE 07:09:04 78° ESE 07:14:10 10° SSW visible
28 Nov 3.5 16:47:08 10° SE 16:51:49 38° ENE 16:56:30 10° N visible
28 Nov 4.2 18:26:01 10° SSW 18:30:50 42° W 18:35:41 10° NNW visible
29 Nov 4.4 06:27:18 10° NNE 06:32:09 41° E 06:36:57 10° SSE visible
29 Nov 3.1 17:48:49 10° SSE 17:53:55 79° WSW 17:59:02 10° NNW visible
29 Nov 5.9 19:30:56 10° WSW 19:33:48 15° W 19:36:41 10° NW visible
30 Nov 5.6 05:51:01 10° NE 05:55:01 23° E 05:59:00 10° SE visible
30 Nov 3.0 17:12:12 10° SE 17:17:11 58° ENE 17:22:11 10° N visible
30 Nov 5.0 18:52:13 10° SSW 18:56:33 28° W 19:00:54 10° NNW visible
01 Dec 6.2 05:15:45 10° ENE 05:17:42 12° E 05:19:38 10° ESE visible
01 Dec 3.6 06:52:41 10° NNE 06:57:46 65° ESE 07:02:49 10° S visible
01 Dec 3.6 16:36:07 10° ESE 16:40:37 33° ENE 16:45:07 10° N visible
01 Dec 3.9 18:14:33 10° S 18:19:29 51° W 18:24:28 10° NNW visible
